AirNav   Air Wisconsin Up To $57,000 Bonus
 
 1607 users online  

11A Clayton Municipal Airport
Clayton, Alabama, USA

GOING TO CLAYTON?


FAA INFORMATION EFFECTIVE 08 OCTOBER 2020

Location

FAA Identifier: 11A
Lat/Long: 31-53-00.0000N 085-29-06.8000W
31-53.000000N 085-29.113333W
31.8833333,-85.4852222
(estimated)
Elevation: 434.9 ft. / 132.6 m (surveyed)
Variation: 04W (2015)
From city: 2 miles W of CLAYTON, AL
Time zone: UTC -5 (UTC -6 during Standard Time)
Zip code: 36016

Airport Operations

Airport use: Open to the public
Activation date: 02/1970
Control tower: no
ARTCC: JACKSONVILLE CENTER
FSS: ANNISTON FLIGHT SERVICE STATION
NOTAMs facility: ANB (NOTAM-D service available)
Attendance: UNATNDD
Wind indicator: lighted
Segmented circle: yes
Lights: ACTVT PAPI RWY 9 & 27; HIRL RWY 9/27 - CTAF.
Beacon: white-green (lighted land airport)
Operates sunset to sunrise.

Airport Communications

CTAF: 122.9
WX AWOS-3: 118.775 (334-775-8414)
CAIRNS APPROACH: 121.1
CAIRNS DEPARTURE: 121.1
WX ASOS at EUF (19 nm E): 128.325 (334-687-5596)
  • APCH/DEP SVC PRVDD BY ATLANTA ARTCC ON FREQS 120.55/270.25 (MONTGOMERY RCAG) WHEN CAIRNS APCH/DEP CLSD.

Nearby radio navigation aids

VOR radial/distance  VOR name  Freq  Var
EUFr255/18.5EUFAULA VORTAC109.2002E
HEYr019/(31.7)HANCHEY VOR110.6003W
RRSr354/36.0WIREGRASS VORTAC111.6002E
LSFr225/36.8LAWSON VOR/DME111.4002W
TGEr163/37.3TUSKEGEE VOR/DME117.3002E
OZRr021/38.9CAIRNS VOR/DME111.2003W

 
NDB name  Hdg/Dist  Freq  Var  ID
HANCHEY019/31.622103WHYE .... -.-- .
BLOOD088/31.836504WTOI - --- ..
LOWE026/34.026903WLOR .-.. --- .-.
LAWSON226/34.033502WAWS .- .-- ...

Airport Services

Parking: tiedowns
Bottled oxygen: NONE
Bulk oxygen: NONE

Runway Information

Runway 9/27

Dimensions: 5010 x 80 ft. / 1527 x 24 m
Surface: asphalt, in fair condition
Runway edge lights: high intensity
Runway edge markings: MARKINGS FADED.
RUNWAY 9  RUNWAY 27
Latitude: 31-53.047310N31-52.951598N
Longitude: 085-29.594240W085-28.632727W
Elevation: 422.0 ft.434.3 ft.
Traffic pattern: leftleft
Runway heading: 101 magnetic, 097 true281 magnetic, 277 true
Displaced threshold: 278 ft.no
Markings: nonprecision, in poor conditionnonprecision, in poor condition
Visual slope indicator: 2-light PAPI on left (3.20 degrees glide path)2-light PAPI on left (3.75 degrees glide path)
Runway end identifier lights: yesyes
Touchdown point: yes, no lightsyes, no lights
Obstructions: 40 ft. tree, 933 ft. from runway, 25 ft. right of centerline, 18:1 slope to clear
APCH RATIO 26:1 FM DSPLCD THR.
15 ft. tree, 446 ft. from runway, 122 ft. left of centerline, 16:1 slope to clear

Airport Ownership and Management from official FAA records

Ownership: Publicly-owned
Owner: CITY OF CLAYTON
PO BOX 385
CLAYTON, AL 36016
Phone 334-775-9176
Manager: CITY OF CLAYTON
BOX 385
CLAYTON, AL 36016
Phone 334-775-9176

Airport Operational Statistics

Aircraft based on the field: 1
Jet airplanes: 1
    
Aircraft operations: avg 30/week *
79% transient general aviation
21% local general aviation
* for 12-month period ending 07 February 2020

Additional Remarks

DEER AND BIRD ACTVTY ON AND INVOF RWY.
FOR CD CTC CAIRNS APCH AT 334-255-8402; FOR CD WHEN CAIRNS APCH CLSD CTC ATLANTA ARTCC AT 770-210-7692.

Instrument Procedures

NOTE: All procedures below are presented as PDF files. If you need a reader for these files, you should download the free Adobe Reader.

NOT FOR NAVIGATION. Please procure official charts for flight.
FAA instrument procedures published for use from 08 October 2020 at 0901Z to 05 November 2020 at 0900Z.

 
IAPs - Instrument Approach Procedures
RNAV (GPS) RWY 09   download (236KB)
RNAV (GPS) RWY 27   download (212KB)
NOTE: Special Take-Off Minimums/Departure Procedures apply   download (248KB)

Other nearby airports with instrument procedures:

KEUF - Weedon Field Airport (19 nm E)
KTOI - Troy Municipal Airport at N Kenneth Campbell Field (27 nm W)
71J - Ozark-Blackwell Field Airport (28 nm S)
0J6 - Headland Municipal Airport (32 nm S)
KHEY - Hanchey Army Heliport (Fort Rucker) (33 nm S)
 
Loc | Ops | Rwys | IFR | FBO | Links
Com | Nav | Svcs | Stats | Notes

Continental Services
AirBoss

 
Area around 11A (Clayton Municipal Airport)
 
Road maps at: MapQuest Bing Google
 
Aerial photo
WARNING: Photo may not be current or correct
Aerial photo of 11A (Clayton Municipal Airport)
Photo courtesy of Eddie Yell / Boyd Bros Transportation
Photo taken 22-Mar-2009

Do you have a better or more recent aerial photo of Clayton Municipal Airport that you would like to share? If so, please send us your photo.

 
Sectional chart

 
Airport distance calculator
Flying to Clayton Municipal Airport? Find the distance to fly.

From to 11A

Sunrise and sunset
Times for 21-Oct-2020
 Local
(UTC-5)
 Zulu
(UTC)
Morning civil twilight06:2711:27
Sunrise06:5111:51
Sunset18:0123:01
Evening civil twilight18:2623:26

Current date and time
Zulu (UTC)  21-Oct-2020 19:36:03
Local (UTC-5)  21-Oct-2020 14:36:03
 
METAR
KEUF 
19nm E 
211858Z AUTO 08007KT 10SM FEW024 SCT030 BKN035 27/21 A3012 RMK AO2 SLP195 T02720206
KTOI 
27nm W 
211853Z AUTO 06007KT 10SM 28/19 A3012 RMK AO2 SLPNO T02830194 $
KHEY 
33nm S 
211858Z AUTO 06009KT 10SM SCT028 28/20 A3008 RMK AO2 SLP186 T02810203
KDHN 
34nm S 
211905Z 07009KT 10SM BKN027 28/21 A3013 RMK AO2 T02780211
KLOR 
35nm SW 
211858Z AUTO 10005KT 10SM FEW030 28/20 A3009 RMK AO2 SLP171 T02780202
KLSF 
36nm NE 
211911Z AUTO 05003KT 10SM SCT029 SCT037 SCT048 BKN065 28/21 A3011 RMK AO2 SLP200 $
KSXS 
36nm SW 
211858Z AUTO 08006KT 10SM CLR 28/20 A3008 RMK AO2 SLP185 T02770200
TAF
KTOI 
27nm W 
211739Z 2118/2218 08007KT P6SM BKN035 FM212300 06005KT P6SM FEW045 FM220100 VRB04KT P6SM SKC FM220900 VRB03KT P6SM BKN015 FM221400 09006KT P6SM SCT050
NOTAMs
Click for the latest NOTAMs
NOTAMs are issued by the DoD/FAA and will open in a separate window not controlled by AirNav.

 

 
 

Would you like to see your business listed on this page?

 If your business provides an interesting product or service to pilots, flight crews, aircraft, or users of the Clayton Municipal Airport, you should consider listing it here.  To start the listing process, click on the button below
 
Add a business
 

Other Pages about Clayton Municipal Airport

Update a link
 
Copyright © AirNav, LLC. All rights reserved. Privacy Policy  Contact